Location: Gull Harbor
(47.1000°N, 122.9000°W)
Time: 22:31:31
(UTC-07:00)

BlueWalker 3 - Pass Details

Date: 06 February 2023
Orbit: 497 x 515 km, 53.2° (Epoch: 23 March)

Event Time Altitude Azimuth Distance (km) Brightness Sun altitude
Rises 19:05:43 0° 297° (WNW) 2,605 6.6 -18.0°
Reaches altitude 10° 19:07:57 10° 303° (WNW) 1,722 5.4 -18.4°
Maximum altitude 19:11:46 50° 20° (NNE) 652 2.3 -19.0°
Enters shadow 19:12:14 47° 47° (NE) 683 2.2 -19.1°
